This is the latest recevied weather packets stored in our database for station/object JF2ZGN-13. If no packets are shown the sender has not sent any weather packets the latest 10 day(s).
| Time | Temp. | Humidity | Pressure | Rain* | Wind** | Luminosity | Snow |
|---|---|---|---|---|---|---|---|
| 1787591745 | 20° C | 84% | 911.2 hPa | 0 mm | - | - | - |
| 1787591145 | 20° C | 83% | 911.2 hPa | 0 mm | - | - | - |
| 1787590544 | 20° C | 82% | 911.1 hPa | 0 mm | - | - | - |
| 1787589944 | 20° C | 80% | 911.1 hPa | 0 mm | - | - | - |
| 1787589343 | 20° C | 83% | 911.2 hPa | 0 mm | - | - | - |
| 1787588744 | 20° C | 83% | 911.2 hPa | 0 mm | - | - | - |
| 1787588143 | 20° C | 81% | 911.3 hPa | 0 mm | - | - | - |
| 1787587543 | 20.56° C | 79% | 911.3 hPa | 0 mm | - | - | - |
| 1787586942 | 20.56° C | 76% | 911.3 hPa | 0 mm | - | - | - |
| 1787586342 | 20.56° C | 79% | 911.4 hPa | 0 mm | - | - | - |
| 1787585741 | 20.56° C | 82% | 911.5 hPa | 0 mm | - | - | - |
| 1787585140 | 20.56° C | 84% | 911.6 hPa | 0 mm | - | - | - |
| 1787584540 | 20.56° C | 86% | 911.8 hPa | 0 mm | - | - | - |
| 1787583939 | 20.56° C | 85% | 911.8 hPa | 0 mm | - | - | - |
| 1787583339 | 20.56° C | 83% | 912 hPa | 0 mm | - | - | - |
| 1787582738 | 21.11° C | 81% | 912.1 hPa | 0 mm | - | - | - |
| 1787582138 | 20.56° C | 84% | 912.1 hPa | 0 mm | - | - | - |
| 1787581537 | 20.56° C | 87% | 911.8 hPa | 0 mm | - | - | - |
| 1787580937 | 21.11° C | 84% | 912.2 hPa | 0 mm | - | - | - |
| 1787580337 | 20.56° C | 84% | 912.1 hPa | 0 mm | - | - | - |
| 1787579737 | 20.56° C | 84% | 912.1 hPa | 0 mm | - | - | - |
| 1787579136 | 20.56° C | 85% | 912.1 hPa | 0 mm | - | - | - |
| 1787578535 | 20.56° C | 84% | 912.1 hPa | 0 mm | - | - | - |
| 1787577935 | 20.56° C | 82% | 912.2 hPa | 0 mm | - | - | - |
| 1787577334 | 21.11° C | 75% | 912.2 hPa | 0 mm | - | - | - |
* Rain since midnight (hover to see other rain measurements)
** Current wind speed in m/s (hover to see current wind gust speed)